Regional Weather Roundup
Issued by NWS Little Rock, AR

Home | Current Version | Previous Version | Graphics & Text | Print | Product List | Glossary On
Versions: 1 2 3 4 5 6 7 8 9 10 11 12 13 14 15 16 17 18 19 20 21 22 23 24 25 26 27 28 29 30 31 32 33 34 35 36 37 38 39 40 41 42 43 44 45 46 47 48 49 50
000
ASUS44 KLZK 051105
RWRLZK

WEATHER ROUNDUP FOR ARKANSAS
NATIONAL WEATHER SERVICE LITTLE ROCK AR
600 AM CDT THU MAY 05 2016

NOTE: "FAIR" INDICATES FEW OR NO CLOUDS BELOW 12,000 FEET WITH NO
SIGNIFICANT WEATHER AND/OR OBSTRUCTIONS TO VISIBILITY.

ARZ001-003-010-029-051200-
NORTHWEST ARKANSAS

CITY           SKY/WX    TMP DP  RH WIND       PRES   REMARKS
FAYETTEVILLE   CLEAR     39  39 100 CALM      30.03R
FORT SMITH     CLEAR     49  43  80 SW3       30.02R
HARRISON       CLEAR     48  39  71 W5        30.00R
BENTONVILLE    CLEAR     43  37  81 CALM      30.03R
ROGERS         CLEAR     43  39  86 W3        30.03R
SILOAM SPGS    CLEAR     43  34  70 CALM      30.04R
HIGHFILL       CLEAR     43  39  86 CALM      30.02R
SPRINGDALE     CLEAR     45  41  87 S6        30.04
$$

ARZ004-005-016-051200-
NORTH CENTRAL ARKANSAS

CITY           SKY/WX    TMP DP  RH WIND       PRES   REMARKS
BATESVILLE     CLEAR     48  39  71 W6        29.96S
FLIPPIN        CLEAR    N/A N/A N/A S3        29.96R
MTN HOME       CLEAR     46  43  89 NW3       29.97R
$$

ARZ040-041-051200-
WEST CENTRAL ARKANSAS

CITY           SKY/WX    TMP DP  RH WIND       PRES   REMARKS
MENA           CLEAR     46  43  87 CALM      30.02R
MOUNT IDA      CLEAR     45  42  89 CALM      29.98R
$$

ARZ009-017-025-026-028-051200-
NORTHEAST ARKANSAS

CITY           SKY/WX    TMP DP  RH WIND       PRES   REMARKS
CORNING          N/A     48  41  76 NW9       29.92R
JONESBORO      CLEAR     51  42  71 W7        29.92R
NEWPORT        CLEAR     50  42  73 W9        29.95R
WALNUT RIDGE   CLEAR     48  37  66 W6        29.93R
BLYTHEVILLE    CLEAR     50  43  77 W7        29.89S
$$

ARZ022-023-033-042-044-051200-
CENTRAL ARKANSAS

CITY           SKY/WX    TMP DP  RH WIND       PRES   REMARKS
LITTLE ROCK    PTCLDY    55  43  63 NW7       29.98R
N LITTLE ROCK    N/A     52  43  72 N6        29.96R
JACKSONVILLE   CLEAR     47  42  85 SW6       29.97R
SEARCY         CLEAR     48  43  81 CALM      29.98R
HOT SPRINGS    CLEAR     48  44  86 NW3       30.00R
RUSSELLVILLE   CLEAR     45  43  93 CALM      29.99R
CLINTON        FAIR      41  41 100 CALM      30.00R
$$

ARZ036-051200-
EAST ARKANSAS

CITY           SKY/WX    TMP DP  RH WIND       PRES   REMARKS
WEST MEMPHIS   CLEAR     51  46  83 W3        29.91S
$$

ARZ050-053-066-070-073-051200-
SOUTHWEST ARKANSAS

CITY           SKY/WX    TMP DP  RH WIND       PRES   REMARKS
ARKADELPHIA    FAIR      53  52  97 CALM      30.00R
CAMDEN         CLEAR     46  45  93 CALM      29.98S
TEXARKANA      CLEAR     55  44  66 NW5       30.00R
EL DORADO      CLEAR     50  46  86 NW6       29.98R
DE QUEEN       CLEAR     45  45 100 CALM      30.00R FOG
$$

ARZ056-057-069-051200-
SOUTHEAST ARKANSAS

CITY           SKY/WX    TMP DP  RH WIND       PRES   REMARKS
PINE BLUFF     CLEAR     52  45  77 NW3       29.97R
STUTTGART      CLEAR     52  43  71 NW6       29.97R
MONTICELLO     CLEAR     50  46  86 NW3       29.96R

$$





USA.gov is the U.S. government's official web portal to all federal, state and local government web resources and services.